EW7774 Weather Reports


Display with metric or nautical units.
time (UTC)temp
F
wind
direction
speed
MPH
gust
MPH
rain 1hr
in
rain 24hr
in
rain mn
in
humidity
%
barometer
mb
20260510161826 78 187 0.0 7.0 0.00 0.00 0.00 49 1013.4
20260510161537 77 0 0.0 8.0 0.00 0.00 0.00 50 1013.8
20260510161330 78 195 0.0 7.0 0.00 0.00 0.00 52 1013.4
20260510161026 77 220 0.0 5.0 0.00 0.00 0.00 53 1013.8
20260510160818 77 93 0.0 5.0 0.00 0.00 0.00 52 1013.3
20260510160523 77 112 0.0 5.0 0.00 0.00 0.00 51 1013.7
20260510160322 77 166 0.0 4.0 0.00 0.00 0.00 51 1013.4
20260510160043 77 0 1.0 4.0 0.00 0.00 0.00 53 1013.7
20260510155847 78 86 1.0 4.0 0.00 0.00 0.00 52 1013.4
20260510155526 77 0 0.0 6.0 0.00 0.00 0.00 52 1013.8
20260510155330 77 13 0.0 5.0 0.00 0.00 0.00 51 1013.4
20260510155022 77 37 1.0 6.0 0.00 0.00 0.00 50 1013.9
20260510154835 77 197 1.0 5.0 0.00 0.00 0.00 53 1013.6
20260510154540 76 228 0.0 6.0 0.00 0.00 0.00 52 1013.9
20260510154319 77 202 0.0 5.0 0.00 0.00 0.00 50 1013.5
20260510154025 77 226 0.0 6.0 0.00 0.00 0.00 51 1013.9
20260510153826 77 200 0.0 5.0 0.00 0.00 0.00 54 1013.4
20260510153528 76 0 1.0 7.0 0.00 0.00 0.00 51 1013.9
20260510153332 76 176 0.0 6.0 0.00 0.00 0.00 53 1013.5
20260510153039 76 0 0.0 7.0 0.00 0.00 0.00 52 1013.8
20260510152837 76 169 0.0 6.0 0.00 0.00 0.00 54 1013.4
20260510152525 75 193 0.0 7.0 0.00 0.00 0.00 53 1013.8
20260510152320 76 63 0.0 2.0 0.00 0.00 0.00 54 1013.4
20260510152024 74 0 0.0 6.0 0.00 0.00 0.00 57 1013.9
20260510151831 75 61 0.0 7.0 0.00 0.00 0.00 57 1013.4
20260510151540 74 0 0.0 6.0 0.00 0.00 0.00 55 1013.9
20260510151318 74 260 1.0 7.0 0.00 0.00 0.00 56 1013.5
20260510151025 73 0 0.0 5.0 0.00 0.00 0.00 58 1013.9
20260510150825 73 260 1.0 4.0 0.00 0.00 0.00 59 1013.5
20260510150525 72 0 0.0 5.0 0.00 0.00 0.00 57 1014.0
20260510150330 73 236 0.0 5.0 0.00 0.00 0.00 58 1013.6
20260510150043 72 310 1.0 5.0 0.00 0.00 0.00 59 1014.0
20260510145817 72 260 1.0 5.0 0.00 0.00 0.00 60 1013.5
20260510145524 72 336 0.0 5.0 0.00 0.00 0.00 60 1014.0
20260510145324 72 182 0.0 3.0 0.00 0.00 0.00 58 1013.4
20260510145027 72 0 0.0 3.0 0.00 0.00 0.00 59 1013.8
20260510144832 72 158 0.0 1.0 0.00 0.00 0.00 57 1013.4
20260510144551 72 0 0.0 2.0 0.00 0.00 0.00 59 1013.8
20260510144316 72 21 0.0 2.0 0.00 0.00 0.00 58 1013.3
20260510144026 72 0 0.0 2.0 0.00 0.00 0.00 56 1013.7
20260510143821 72 291 0.0 2.0 0.00 0.00 0.00 57 1013.2
20260510143524 72 276 0.0 4.0 0.00 0.00 0.00 58 1013.6
20260510143326 72 305 0.0 4.0 0.00 0.00 0.00 57 1013.1
20260510143049 71 0 0.0 4.0 0.00 0.00 0.00 59 1013.5
20260510142815 72 14 0.0 4.0 0.00 0.00 0.00 57 1013.1
20260510142525 71 345 0.0 0.0 0.00 0.00 0.00 62 1013.5
20260510142323 71 188 0.0 0.0 0.00 0.00 0.00 63 1013.0
20260510142025 70 0 0.0 1.0 0.00 0.00 0.00 67 1013.4
20260510141827 71 6 0.0 1.0 0.00 0.00 0.00 67 1013.0
20260510141537 70 0 0.0 1.0 0.00 0.00 0.00 66 1013.3
20260510141331 70 163 0.0 1.0 0.00 0.00 0.00 67 1013.0
20260510141028 69 0 0.0 0.0 0.00 0.00 0.00 66 1013.3
20260510140818 69 163 0.0 0.0 0.00 0.00 0.00 67 1012.9
20260510140526 68 0 0.0 2.0 0.00 0.00 0.00 66 1013.3
20260510140326 69 163 0.0 2.0 0.00 0.00 0.00 67 1013.0
20260510140042 68 0 0.0 2.0 0.00 0.00 0.00 70 1013.4
20260510135851 68 161 0.0 2.0 0.00 0.00 0.00 70 1013.1
20260510135525 67 0 0.0 0.0 0.00 0.00 0.00 72 1013.5
20260510135317 68 201 0.0 0.0 0.00 0.00 0.00 70 1013.1
20260510135025 67 0 0.0 0.0 0.00 0.00 0.00 69 1013.5
20260510134821 67 200 0.0 0.0 0.00 0.00 0.00 71 1013.1
20260510134545 66 0 0.0 0.0 0.00 0.00 0.00 72 1013.6
20260510134326 66 215 0.0 0.0 0.00 0.00 0.00 73 1013.2
20260510134024 66 0 0.0 0.0 0.00 0.00 0.00 74 1013.7
20260510133831 66 214 0.0 0.0 0.00 0.00 0.00 73 1013.2
20260510133526 65 0 0.0 0.0 0.00 0.00 0.00 74 1013.6
20260510133340 65 214 0.0 0.0 0.00 0.00 0.00 74 1013.2
20260510133038 64 0 0.0 0.0 0.00 0.00 0.00 75 1013.7
20260510132822 64 214 0.0 0.0 0.00 0.00 0.00 78 1013.3
20260510132525 63 0 0.0 0.0 0.00 0.00 0.00 82 1013.8
20260510132327 63 134 0.0 0.0 0.00 0.00 0.00 81 1013.3
20260510132025 63 0 0.0 0.0 0.00 0.00 0.00 80 1013.7
20260510131831 63 133 0.0 0.0 0.00 0.00 0.00 82 1013.2
20260510131543 62 0 0.0 0.0 0.00 0.00 0.00 82 1013.6
20260510131356 62 132 0.0 0.0 0.00 0.00 0.00 84 1013.2
20260510131025 61 0 0.0 0.0 0.00 0.00 0.00 84 1013.6
20260510130820 61 132 0.0 0.0 0.00 0.00 0.00 85 1013.3
20260510130525 60 0 0.0 0.0 0.00 0.00 0.00 84 1013.6
20260510130324 61 132 0.0 0.0 0.00 0.00 0.00 85 1013.2
20260510130044 60 0 0.0 0.0 0.00 0.00 0.00 87 1013.5
20260510125828 60 132 0.0 0.0 0.00 0.00 0.00 88 1013.2
20260510125525 59 0 0.0 0.0 0.00 0.00 0.00 88 1013.7
20260510125354 59 132 0.0 0.0 0.00 0.00 0.00 90 1013.2
20260510125028 58 0 0.0 0.0 0.00 0.00 0.00 91 1013.6
20260510124817 58 132 0.0 0.0 0.00 0.00 0.00 91 1013.2
20260510124543 57 0 0.0 0.0 0.00 0.00 0.00 92 1013.6
20260510124322 58 132 0.0 0.0 0.00 0.00 0.00 93 1013.3
20260510124025 57 0 0.0 0.0 0.00 0.00 0.00 93 1013.7
20260510123845 57 132 0.0 0.0 0.00 0.00 0.00 94 1013.5
20260510123525 56 0 0.0 0.0 0.00 0.00 0.00 94 1013.9
20260510123352 57 132 0.0 0.0 0.00 0.00 0.00 95 1013.5
20260510123037 56 0 0.0 0.0 0.00 0.00 0.00 95 1013.9
20260510122815 56 132 0.0 0.0 0.00 0.00 0.00 96 1013.4
20260510122525 55 0 0.0 0.0 0.00 0.00 0.00 96 1013.8
20260510122324 55 132 0.0 0.0 0.00 0.00 0.00 97 1013.4
20260510122025 54 0 0.0 0.0 0.00 0.00 0.00 96 1013.8
20260510121849 55 132 0.0 0.0 0.00 0.00 0.00 97 1013.4
20260510121538 54 0 0.0 0.0 0.00 0.00 0.00 96 1013.7
20260510121352 54 132 0.0 0.0 0.00 0.00 0.00 96 1013.4
20260510121026 54 0 0.0 0.0 0.00 0.00 0.00 96 1013.8
20260510120814 54 132 0.0 0.0 0.00 0.00 0.00 96 1013.5
20260510120529 53 0 0.0 0.0 0.00 0.00 0.00 96 1013.8
20260510120322 53 132 0.0 0.0 0.00 0.00 0.00 96 1013.4
20260510120046 53 0 0.0 0.0 0.00 0.00 0.00 96 1013.9
20260510115826 53 132 0.0 0.0 0.00 0.00 0.00 96 1013.5
20260510115525 52 0 0.0 0.0 0.00 0.00 0.00 96 1013.7
20260510115314 53 132 0.0 0.0 0.00 0.00 0.00 96 1013.4
20260510115027 52 0 0.0 0.0 0.00 0.00 0.00 96 1013.7
20260510114823 52 132 0.0 0.0 0.00 0.00 0.00 96 1013.3
20260510114543 52 0 0.0 0.0 0.00 0.00 0.00 96 1013.7
20260510114326 52 132 0.0 0.0 0.00 0.00 0.00 96 1013.3
20260510114026 51 0 0.0 0.0 0.00 0.00 0.00 95 1013.6
20260510113831 52 132 0.0 0.0 0.00 0.00 0.00 96 1013.2
20260510113525 51 0 0.0 0.0 0.00 0.00 0.00 95 1013.5
20260510113335 51 132 0.0 0.0 0.00 0.00 0.00 96 1013.1
20260510113040 50 0 0.0 0.0 0.00 0.00 0.00 95 1013.5
20260510112840 51 132 0.0 0.0 0.00 0.00 0.00 96 1013.0
20260510112525 50 0 0.0 0.0 0.00 0.00 0.00 95 1013.4
20260510112323 50 132 0.0 0.0 0.00 0.00 0.00 95 1012.9
20260510112025 50 0 0.0 0.0 0.00 0.00 0.00 95 1013.3
20260510111832 50 132 0.0 0.0 0.00 0.00 0.00 95 1012.9
20260510111551 49 0 0.0 0.0 0.00 0.00 0.00 94 1013.1
20260510111316 50 132 0.0 0.0 0.00 0.00 0.00 95 1012.8
20260510111024 49 0 0.0 0.0 0.00 0.00 0.00 94 1013.0
20260510110821 49 132 0.0 0.0 0.00 0.00 0.00 95 1012.6
20260510110525 49 0 0.0 0.0 0.00 0.00 0.00 94 1012.8
20260510110325 49 132 0.0 0.0 0.00 0.00 0.00 95 1012.5
20260510110038 49 0 0.0 0.0 0.00 0.00 0.00 94 1012.9
20260510105830 49 0.0 0.0 0.00 0.00 0.00 95 1012.5
20260510105525 48 0.0 0.0 0.00 0.00 0.00 94 1012.7
20260510105317 49 0.0 0.0 0.00 0.00 0.00 95 1012.4
20260510105025 48 0.0 0.0 0.00 0.00 0.00 94 1012.7
20260510104824 49 0.0 0.0 0.00 0.00 0.00 94 1012.3
20260510104546 48 0.0 0.0 0.00 0.00 0.00 94 1012.6
20260510104332 49 0.0 0.0 0.00 0.00 0.00 94 1012.3
20260510104025 48 0.0 0.0 0.00 0.00 0.00 94 1012.5
20260510103819 49 0.0 0.0 0.00 0.00 0.00 94 1012.2
20260510103525 48 0.0 0.0 0.00 0.00 0.00 94 1012.4
20260510103327 49 0.0 0.0 0.00 0.00 0.00 94 1012.1
20260510103038 48 0.0 0.0 0.00 0.00 0.00 93 1012.2
20260510102838 49 0.0 0.0 0.00 0.00 0.00 94 1011.9
20260510102525 48 0.0 0.0 0.00 0.00 0.00 93 1012.0
20260510102325 49 0.0 0.0 0.00 0.00 0.00 94 1011.8
20260510102026 48 0.0 0.0 0.00 0.00 0.00 93 1012.0
20260510101812 49 0.0 0.0 0.00 0.00 0.00 94 1011.7
20260510101543 48 0.0 0.0 0.00 0.00 0.00 93 1011.9
20260510101319 49 0.0 0.0 0.00 0.00 0.00 94 1011.7
20260510101025 48 0.0 0.0 0.00 0.00 0.00 93 1011.9
20260510100826 49 0.0 0.0 0.00 0.00 0.00 94 1011.7
20260510100525 48 0.0 0.0 0.00 0.00 0.00 93 1011.9
20260510100333 49 0.0 0.0 0.00 0.00 0.00 94 1011.6
20260510100040 48 0.0 0.0 0.00 0.00 0.00 93 1011.8
20260510095822 49 0.0 0.0 0.00 0.00 0.00 94 1011.6
20260510095525 48 0.0 0.0 0.00 0.00 0.00 93 1011.8
20260510095329 49 0.0 0.0 0.00 0.00 0.00 94 1011.4
20260510095024 48 0.0 0.0 0.00 0.00 0.00 93 1011.6
20260510094816 49 0.0 0.0 0.00 0.00 0.00 94 1011.5
20260510094541 48 0.0 0.0 0.00 0.00 0.00 93 1011.7
20260510094324 49 0.0 0.0 0.00 0.00 0.00 94 1011.4
20260510094025 49 0.0 0.0 0.00 0.00 0.00 93 1011.7
20260510093832 49 0.0 0.0 0.00 0.00 0.00 94 1011.4
20260510093526 49 0.0 0.0 0.00 0.00 0.00 93 1011.6
20260510093322 49 0.0 0.0 0.00 0.00 0.00 93 1011.4
20260510093037 49 0.0 0.0 0.00 0.00 0.00 93 1011.7
20260510092829 49 0.0 0.0 0.00 0.00 0.00 94 1011.5
20260510092526 49 0.0 0.0 0.00 0.00 0.00 93 1011.8
20260510092334 49 0.0 0.0 0.00 0.00 0.00 93 1011.6
20260510092026 49 0.0 0.0 0.00 0.00 0.00 93 1011.8
20260510091818 49 0.0 0.0 0.00 0.00 0.00 93 1011.6
20260510091537 49 0.0 0.0 0.00 0.00 0.00 93 1011.7
20260510091322 49 0.0 0.0 0.00 0.00 0.00 93 1011.5
20260510091025 49 0.0 0.0 0.00 0.00 0.00 93 1011.8
20260510090849 49 0.0 0.0 0.00 0.00 0.00 93 1011.5
20260510090527 49 0.0 0.0 0.00 0.00 0.00 93 1011.6
20260510090353 49 0.0 0.0 0.00 0.00 0.00 93 1011.4
20260510090040 49 0.0 0.0 0.00 0.00 0.00 93 1011.5
20260510085816 50 0.0 0.0 0.00 0.00 0.00 93 1011.3
20260510085528 49 0.0 0.0 0.00 0.00 0.00 93 1011.6
20260510085321 50 0.0 0.0 0.00 0.00 0.00 93 1011.3
20260510085025 49 0.0 0.0 0.00 0.00 0.00 93 1011.6
20260510084829 50 0.0 0.0 0.00 0.00 0.00 93 1011.4
20260510084542 49 0.0 0.0 0.00 0.00 0.00 93 1011.6
20260510084316 50 0.0 0.0 0.00 0.00 0.00 93 1011.4
20260510084025 49 0.0 0.0 0.00 0.00 0.00 93 1011.6
20260510083823 50 0.0 0.0 0.00 0.00 0.00 93 1011.4
20260510083529 49 0.0 0.0 0.00 0.00 0.00 92 1011.6
20260510083335 50 0.0 0.0 0.00 0.00 0.00 93 1011.4
20260510083039 49 0.0 0.0 0.00 0.00 0.00 92 1011.6
20260510082820 50 0.0 0.0 0.00 0.00 0.00 93 1011.4
20260510082527 50 0.0 0.0 0.00 0.00 0.00 92 1011.6
20260510082324 50 0.0 0.0 0.00 0.00 0.00 93 1011.3
20260510082025 50 0.0 0.0 0.00 0.00 0.00 92 1011.5
20260510081817 50 0.0 0.0 0.00 0.00 0.00 93 1011.4
20260510081542 50 0.0 0.0 0.00 0.00 0.00 93 1011.5
20260510081321 50 0.0 0.0 0.00 0.00 0.00 93 1011.3
20260510081025 50 0.0 0.0 0.00 0.00 0.00 93 1011.4
20260510080826 50 0.0 0.0 0.00 0.00 0.00 93 1011.3
20260510080525 50 0.0 0.0 0.00 0.00 0.00 93 1011.4
20260510080332 51 0.0 0.0 0.00 0.00 0.00 93 1011.2
20260510080039 50 0.0 0.0 0.00 0.00 0.00 93 1011.5
20260510075819 51 0.0 0.0 0.00 0.00 0.00 93 1011.2
20260510075524 50 0.0 0.0 0.00 0.00 0.00 93 1011.3
20260510075323 51 0.0 0.0 0.00 0.00 0.00 93 1011.1
20260510075025 50 0.0 0.0 0.00 0.00 0.00 92 1011.2
20260510074828 51 0.0 0.0 0.00 0.00 0.00 93 1010.9
20260510074537 50 0.0 0.0 0.00 0.00 0.00 92 1011.1
20260510074316 51 0.0 0.0 0.00 0.00 0.00 93 1010.9
20260510074025 50 0.0 0.0 0.00 0.00 0.00 92 1011.0
20260510073820 51 0.0 0.0 0.00 0.00 0.00 93 1010.8
20260510073530 50 0.0 0.0 0.00 0.00 0.00 92 1010.9
20260510073324 51 0.0 0.0 0.00 0.00 0.00 93 1010.8
20260510073037 51 0.0 0.0 0.00 0.00 0.00 92 1010.9
20260510072832 51 0.0 0.0 0.00 0.00 0.00 93 1010.7
20260510072525 51 0.0 0.0 0.00 0.00 0.00 92 1010.9
20260510072319 51 0.0 0.0 0.00 0.00 0.00 93 1010.7
20260510072026 51 0.0 0.0 0.00 0.00 0.00 92 1010.8
20260510071826 51 0.0 0.0 0.00 0.00 0.00 92 1010.6
20260510071542 51 0.0 0.0 0.00 0.00 0.00 92 1010.7
20260510071333 51 0.0 0.0 0.00 0.00 0.00 93 1010.5
20260510071025 51 0.0 0.0 0.00 0.00 0.00 92 1010.7
20260510070817 52 0.0 0.0 0.00 0.00 0.00 93 1010.5
20260510070527 51 0.0 0.0 0.00 0.00 0.00 92 1010.7
20260510070321 52 0.0 0.0 0.00 0.00 0.00 92 1010.5
20260510070043 51 0.0 0.0 0.00 0.00 0.00 92 1010.6
20260510065824 52 0.0 0.0 0.00 0.00 0.00 92 1010.4
20260510065527 51 0.0 0.0 0.00 0.00 0.00 92 1010.7
20260510065316 52 0.0 0.0 0.00 0.00 0.00 92 1010.4
20260510065024 51 0.0 0.0 0.00 0.00 0.00 92 1010.6
20260510064819 52 0.0 0.0 0.00 0.00 0.00 92 1010.4
20260510064539 51 0.0 0.0 0.00 0.00 0.00 92 1010.6
20260510064324 52 0.0 0.0 0.00 0.00 0.00 92 1010.3
20260510064024 52 0.0 0.0 0.00 0.00 0.00 92 1010.5
20260510063832 52 0.0 0.0 0.00 0.00 0.00 92 1010.2
20260510063525 52 0.0 0.0 0.00 0.00 0.00 92 1010.3
20260510063316 52 0.0 0.0 0.00 0.00 0.00 92 1010.1
20260510063039 52 0.0 0.0 0.00 0.00 0.00 92 1010.3
20260510062819 52 0.0 0.0 0.00 0.00 0.00 92 1010.1
20260510062525 52 0.0 0.0 0.00 0.00 0.00 91 1010.3
20260510062345 52 0.0 0.0 0.00 0.00 0.00 92 1010.1
20260510062025 52 0.0 0.0 0.00 0.00 0.00 91 1010.4
20260510061828 53 0.0 0.0 0.00 0.00 0.00 92 1010.1
20260510061538 52 0.0 0.0 0.00 0.00 0.00 91 1010.3
20260510061316 53 0.0 0.0 0.00 0.00 0.00 92 1010.1
20260510061026 52 0.0 0.0 0.00 0.00 0.00 92 1010.4
20260510060844 53 0.0 0.0 0.00 0.00 0.00 92 1010.0
20260510060526 52 0.0 0.0 0.00 0.00 0.00 92 1010.3
20260510060330 53 0.0 0.0 0.00 0.00 0.00 92 1010.0
20260510060047 52 0.0 0.0 0.00 0.00 0.00 91 1010.3
20260510055837 53 0.0 0.0 0.00 0.00 0.00 92 1010.0
20260510055525 53 0.0 0.0 0.00 0.00 0.00 91 1010.4
20260510055323 53 0.0 0.0 0.00 0.00 0.00 92 1010.0
20260510055025 53 0.0 0.0 0.00 0.00 0.00 91 1010.4
20260510054835 53 0.0 0.0 0.00 0.00 0.00 92 1010.1
20260510054541 53 0.0 0.0 0.00 0.00 0.00 91 1010.5
20260510054339 53 0.0 0.0 0.00 0.00 0.00 92 1010.1
20260510054025 53 0.0 0.0 0.00 0.00 0.00 91 1010.6
20260510053823 53 0.0 0.0 0.00 0.00 0.00 92 1010.2
20260510053526 53 0.0 0.0 0.00 0.00 0.00 91 1010.7
20260510053348 54 0.0 0.0 0.00 0.00 0.00 92 1010.3
20260510053041 53 0.0 0.0 0.00 0.00 0.00 91 1010.7
20260510052813 54 0.0 0.0 0.00 0.00 0.00 92 1010.2
20260510052526 53 0.0 0.0 0.00 0.00 0.00 91 1010.7
20260510052321 54 0.0 0.0 0.00 0.00 0.00 92 1010.3
20260510052025 53 0.0 0.0 0.00 0.00 0.00 91 1010.8
20260510051545 53 0.0 0.0 0.00 0.00 0.00 91 1010.8
20260510051342 54 0.0 0.0 0.00 0.00 0.00 91 1010.3
20260510051025 54 0.0 0.0 0.00 0.00 0.00 91 1010.8
20260510050826 54 0.0 0.0 0.00 0.00 0.00 91 1010.3
20260510050524 54 0.0 0.0 0.00 0.00 0.00 91 1010.7
20260510050314 54 0.0 0.0 0.00 0.00 0.00 91 1010.3
20260510050037 54 0.0 0.0 0.00 0.00 0.00 91 1010.7
20260510045821 54 0.0 0.0 0.00 0.00 0.00 91 1010.3
20260510045529 54 0.0 0.0 0.00 0.00 0.00 91 1010.7
20260510045328 55 0.0 0.0 0.00 0.00 0.00 91 1010.2
20260510045026 54 0.0 0.0 0.00 0.00 0.00 90 1010.6
20260510044832 55 0.0 0.0 0.00 0.00 0.00 91 1010.2
20260510044538 54 0.0 0.0 0.00 0.00 0.00 90 1010.7
20260510044316 55 0.0 0.0 0.00 0.00 0.00 91 1010.3
20260510044027 54 0.0 0.0 0.00 0.00 0.00 91 1010.7
20260510043843 55 0.0 0.0 0.00 0.00 0.00 91 1010.3
20260510043526 54 0.0 0.0 0.00 0.00 0.00 90 1010.7
20260510043313 55 0.0 0.0 0.00 0.00 0.00 91 1010.2
20260510043107 55 0.0 0.0 0.00 0.00 0.00 90 1010.7
20260510042820 55 0.0 0.0 0.00 0.00 0.00 90 1010.2
20260510042523 55 0.0 0.0 0.00 0.00 0.00 90 1010.7
20260510042328 55 0.0 0.0 0.00 0.00 0.00 90 1010.2
20260510042025 55 0.0 0.0 0.00 0.00 0.00 90 1010.6
20260510041815 56 0.0 0.0 0.00 0.00 0.00 90 1010.2
20260510041549 55 0.0 0.0 0.00 0.00 0.00 90 1010.6
20260510041322 56 0.0 0.0 0.00 0.00 0.00 90 1010.1
20260510041025 55 0.0 0.0 0.00 0.00 0.00 90 1010.6
20260510040827 56 0.0 0.0 0.00 0.00 0.00 90 1010.1
20260510040525 55 0.0 0.0 0.00 0.00 0.00 90 1010.6
20260510040332 56 0.0 0.0 0.00 0.00 0.00 90 1010.1
20260510040039 56 0.0 0.0 0.00 0.00 0.00 89 1010.5
20260510035816 56 0.0 0.0 0.00 0.00 0.00 90 1010.0
20260510035527 56 0.0 0.0 0.00 0.00 0.00 89 1010.6
20260510035320 56 0.0 0.0 0.00 0.00 0.00 89 1010.0
20260510035029 56 0.0 0.0 0.00 0.00 0.00 89 1010.5
20260510034827 56 0.0 0.0 0.00 0.00 0.00 89 1010.0
20260510034543 56 0.0 0.0 0.00 0.00 0.00 89 1010.4
20260510034317 57 0.0 0.0 0.00 0.00 0.00 89 1010.0
20260510034026 56 0.0 0.0 0.00 0.00 0.00 88 1010.5
20260510033824 57 0.0 0.0 0.00 0.00 0.00 89 1010.0
20260510033526 56 0.0 0.0 0.00 0.00 0.00 88 1010.5
20260510033331 57 0.0 0.0 0.00 0.00 0.00 89 1010.0
20260510033048 57 0.0 0.0 0.00 0.00 0.00 88 1010.5
20260510032817 57 0.0 0.0 0.00 0.00 0.00 89 1010.0
20260510032527 57 0.0 0.0 0.00 0.00 0.00 88 1010.5
20260510032322 57 0.0 0.0 0.00 0.00 0.00 88 1010.0
20260510032023 57 0.0 0.0 0.00 0.00 0.00 88 1010.5
20260510031847 57 0.0 0.0 0.00 0.00 0.00 88 1010.0
20260510031613 57 0.0 0.0 0.00 0.00 0.00 87 1010.5
20260510031332 58 0.0 0.0 0.00 0.00 0.00 88 1009.9
20260510031027 57 0.0 0.0 0.00 0.00 0.00 87 1010.4
20260510030816 58 0.0 0.0 0.00 0.00 0.00 87 1009.9
20260510030526 57 0.0 0.0 0.00 0.00 0.00 87 1010.4
20260510030321 58 0.0 0.0 0.00 0.00 0.00 87 1010.0
20260510030042 57 0.0 0.0 0.00 0.00 0.00 86 1010.5
20260510025827 58 0.0 0.0 0.00 0.00 0.00 87 1009.9
20260510025525 58 0.0 0.0 0.00 0.00 0.00 86 1010.4
20260510025316 58 0.0 0.0 0.00 0.00 0.00 87 1009.9
20260510025025 58 0.0 0.0 0.00 0.00 0.00 86 1010.4
20260510024824 58 0.0 0.0 0.00 0.00 0.00 86 1010.0
20260510024541 58 0.0 0.0 0.00 0.00 0.00 86 1010.4
20260510024328 59 0.0 0.0 0.00 0.00 0.00 86 1009.9
20260510024025 58 0.0 0.0 0.00 0.00 0.00 86 1010.4
20260510023832 59 0.0 0.0 0.00 0.00 0.00 86 1009.9
20260510023522 58 0.0 0.0 0.00 0.00 0.00 85 1010.3
20260510023316 59 0.0 0.0 0.00 0.00 0.00 85 1009.9
20260510023047 59 0.0 0.0 0.00 0.00 0.00 85 1010.3
20260510022820 59 0.0 0.0 0.00 0.00 0.00 85 1009.8
20260510022523 59 0.0 0.0 0.00 0.00 0.00 84 1010.3
20260510022348 59 0.0 0.0 0.00 0.00 0.00 84 1009.8
20260510022023 59 0.0 0.0 0.00 0.00 0.00 84 1010.2
20260510021835 60 0.0 0.0 0.00 0.00 0.00 84 1009.7
20260510021542 59 0.0 0.0 0.00 0.00 0.00 83 1010.1
20260510021319 60 0.0 0.0 0.00 0.00 0.00 84 1009.7
20260510021022 59 0.0 0.0 0.00 0.00 0.00 83 1010.1
20260510020821 60 0.0 0.0 0.00 0.00 0.00 83 1009.6
20260510020523 60 0.0 0.0 0.00 0.00 0.00 82 1010.1
20260510020325 60 0.0 0.0 0.00 0.00 0.00 83 1009.7
20260510020043 60 0.0 0.0 0.00 0.00 0.00 82 1010.0
20260510015833 61 0.0 0.0 0.00 0.00 0.00 82 1009.6
20260510015523 60 0.0 0.0 0.00 0.00 0.00 82 1010.0
20260510015320 61 0.0 0.0 0.00 0.00 0.00 82 1009.6
20260510015025 60 0.0 0.0 0.00 0.00 0.00 81 1010.0
20260510014827 61 0.0 0.0 0.00 0.00 0.00 82 1009.6
20260510014538 61 0.0 0.0 0.00 0.00 0.00 81 1010.0
20260510014331 61 0.0 0.0 0.00 0.00 0.00 81 1009.6
20260510014022 61 0.0 0.0 0.00 0.00 0.00 81 1009.9
20260510013818 62 0.0 0.0 0.00 0.00 0.00 81 1009.4
20260510013526 61 0.0 0.0 0.00 0.00 0.00 80 1009.8
20260510013326 62 0.0 0.0 0.00 0.00 0.00 80 1009.4
20260510013042 61 0.0 0.0 0.00 0.00 0.00 80 1009.8
20260510012830 62 0.0 0.0 0.00 0.00 0.00 80 1009.3
20260510012527 61 0.0 0.0 0.00 0.00 0.00 79 1009.7
20260510012337 62 0.0 0.0 0.00 0.00 0.00 80 1009.2
20260510012026 62 0.0 0.0 0.00 0.00 0.00 80 1009.6
20260510011820 62 0.0 0.0 0.00 0.00 0.00 80 1009.0
20260510011553 61 0.0 0.0 0.00 0.00 0.00 80 1009.4
20260510011326 62 0.0 0.0 0.00 0.00 0.00 80 1009.0
20260510011027 61 0.0 0.0 0.00 0.00 0.00 80 1009.4
20260510010830 62 0.0 0.0 0.00 0.00 0.00 80 1008.9
20260510010523 61 0.0 0.0 0.00 0.00 0.00 80 1009.3
20260510010317 62 0.0 0.0 0.00 0.00 0.00 80 1008.8
20260510010045 61 0.0 0.0 0.00 0.00 0.00 79 1009.2
20260510005827 62 0.0 0.0 0.00 0.00 0.00 80 1008.8
20260510005523 62 0.0 0.0 0.00 0.00 0.00 79 1009.2
20260510005331 62 0.0 0.0 0.00 0.00 0.00 79 1008.8
20260510005022 62 0.0 0.0 0.00 0.00 0.00 78 1009.2
20260510004816 62 0.0 0.0 0.00 0.00 0.00 79 1008.7
20260510004538 62 0.0 0.0 0.00 0.00 0.00 78 1009.1
20260510004323 63 0.0 0.0 0.00 0.00 0.00 78 1008.6
20260510004024 62 0.0 0.0 0.00 0.00 0.00 77 1009.0
20260510003831 63 0.0 0.0 0.00 0.00 0.00 77 1008.6
20260510003525 63 0.0 0.0 0.00 0.00 0.00 76 1009.0
20260510003337 63 0.0 0.0 0.00 0.00 0.00 76 1008.6
20260510003044 63 0.0 0.0 0.00 0.00 0.00 76 1008.9
20260510002824 64 0.0 0.0 0.00 0.00 0.00 76 1008.5
20260510002522 64 0.0 0.0 0.00 0.00 0.00 75 1008.9
20260510002331 64 0.0 0.0 0.00 0.00 0.00 75 1008.5
20260510002029 64 0.0 0.0 0.00 0.00 0.00 74 1008.8
20260510001816 65 0.0 0.0 0.00 0.00 0.00 74 1008.4
20260510001543 64 0.0 0.0 0.00 0.00 0.00 74 1008.8
20260510001320 65 0.0 0.0 0.00 0.00 0.00 74 1008.4
20260510001025 65 0.0 0.0 0.00 0.00 0.00 73 1008.7
20260510000827 65 0.0 0.0 0.00 0.00 0.00 74 1008.4
20260510000526 65 0.0 0.0 0.00 0.00 0.00 72 1008.7
20260510000336 66 0.0 0.0 0.00 0.00 0.00 73 1008.3
20260510000047 65 0.0 0.0 0.00 0.00 0.00 72 1008.7
20260509235822 66 0.0 0.0 0.00 0.00 0.00 72 1008.3
20260509235528 66 0.0 0.0 0.00 0.00 0.00 71 1008.7
20260509235326 66 165 0.0 0.0 0.00 0.00 0.00 71 1008.4
20260509235025 66 0.0 0.0 0.00 0.00 0.00 71 1008.6
20260509234832 67 165 0.0 0.0 0.00 0.00 0.00 71 1008.3
20260509234540 66 0 0.0 0.0 0.00 0.00 0.00 70 1008.6
20260509234320 67 164 0.0 0.0 0.00 0.00 0.00 70 1008.2
20260509234027 67 0 0.0 0.0 0.00 0.00 0.00 69 1008.6
20260509233844 67 164 0.0 0.0 0.00 0.00 0.00 69 1008.2
20260509233526 67 0 0.0 0.0 0.00 0.00 0.00 68 1008.5
20260509233331 68 164 0.0 0.0 0.00 0.00 0.00 68 1008.1
20260509233037 67 0 0.0 0.0 0.00 0.00 0.00 68 1008.5
20260509232816 68 164 0.0 0.0 0.00 0.00 0.00 68 1008.0
20260509232526 67 0 0.0 0.0 0.00 0.00 0.00 66 1008.5
20260509232321 68 164 0.0 0.0 0.00 0.00 0.00 67 1008.1
20260509232026 68 0 0.0 0.0 0.00 0.00 0.00 65 1008.5
20260509231825 68 164 0.0 0.0 0.00 0.00 0.00 67 1008.0
20260509231539 68 0 0.0 0.0 0.00 0.00 0.00 65 1008.4
20260509231332 68 164 0.0 0.0 0.00 0.00 0.00 67 1008.0
20260509231025 68 0 0.0 0.0 0.00 0.00 0.00 66 1008.4
20260509230820 69 165 0.0 0.0 0.00 0.00 0.00 66 1008.0
20260509230525 68 0 0.0 0.0 0.00 0.00 0.00 66 1008.4
20260509230326 69 165 0.0 0.0 0.00 0.00 0.00 66 1008.0
20260509230037 68 0 0.0 0.0 0.00 0.00 0.00 65 1008.3
20260509225851 69 165 0.0 0.0 0.00 0.00 0.00 66 1008.0
20260509225526 69 0 0.0 0.0 0.00 0.00 0.00 65 1008.4
20260509225334 69 165 0.0 0.0 0.00 0.00 0.00 65 1008.1
20260509225025 69 0 0.0 0.0 0.00 0.00 0.00 62 1008.5
20260509224818 69 165 0.0 0.0 0.00 0.00 0.00 62 1008.1
20260509224542 69 0 0.0 0.0 0.00 0.00 0.00 61 1008.4
20260509224323 70 165 0.0 0.0 0.00 0.00 0.00 62 1008.0
20260509224025 70 0 0.0 0.0 0.00 0.00 0.00 60 1008.4
20260509223831 70 165 0.0 0.0 0.00 0.00 0.00 62 1008.0
20260509223526 70 0 0.0 0.0 0.00 0.00 0.00 62 1008.3
20260509223318 71 165 0.0 0.0 0.00 0.00 0.00 60 1007.9
20260509223043 70 0 0.0 0.0 0.00 0.00 0.00 58 1008.3
20260509222822 71 165 0.0 0.0 0.00 0.00 0.00 58 1008.0
20260509222526 70 0 0.0 0.0 0.00 0.00 0.00 60 1008.4
20260509222327 71 165 0.0 0.0 0.00 0.00 0.00 59 1008.1
20260509222025 71 0 0.0 0.0 0.00 0.00 0.00 61 1008.4
20260509221831 71 165 0.0 0.0 0.00 0.00 0.00 59 1008.1
20260509221542 71 0 0.0 0.0 0.00 0.00 0.00 58 1008.5
20260509221320 71 165 0.0 0.0 0.00 0.00 0.00 58 1008.0
20260509221026 71 0 0.0 0.0 0.00 0.00 0.00 58 1008.5
20260509220844 71 165 0.0 0.0 0.00 0.00 0.00 58 1008.0
20260509220527 71 0 0.0 0.0 0.00 0.00 0.00 58 1008.4
20260509220328 71 165 0.0 0.0 0.00 0.00 0.00 57 1008.0
20260509220044 71 0 0.0 2.0 0.00 0.00 0.00 57 1008.4
20260509215832 71 165 0.0 2.0 0.00 0.00 0.00 57 1008.0
20260509215528 71 0 0.0 2.0 0.00 0.00 0.00 56 1008.5
20260509215316 71 140 0.0 2.0 0.00 0.00 0.00 58 1008.1
20260509215026 71 26 0.0 2.0 0.00 0.00 0.00 55 1008.5
20260509214819 71 260 0.0 2.0 0.00 0.00 0.00 56 1008.1
20260509214541 71 0 0.0 2.0 0.00 0.00 0.00 58 1008.5
20260509214324 71 261 0.0 2.0 0.00 0.00 0.00 56 1008.1
20260509214025 71 0 0.0 0.0 0.00 0.00 0.00 58 1008.3
20260509213826 71 267 0.0 0.0 0.00 0.00 0.00 55 1007.9
20260509213525 71 0 0.0 2.0 0.00 0.00 0.00 56 1008.3
20260509213335 71 267 0.0 2.0 0.00 0.00 0.00 59 1008.1
20260509213049 71 0 0.0 2.0 0.00 0.00 0.00 57 1008.3
20260509212822 71 267 0.0 2.0 0.00 0.00 0.00 57 1008.1
20260509212525 71 0 0.0 2.0 0.00 0.00 0.00 55 1008.5
20260509212327 71 188 0.0 2.0 0.00 0.00 0.00 56 1008.2
20260509212025 71 0 0.0 2.0 0.00 0.00 0.00 56 1008.5
20260509211832 71 329 0.0 2.0 0.00 0.00 0.00 56 1008.1
20260509211608 71 0 0.0 2.0 0.00 0.00 0.00 56 1008.4
20260509211323 71 235 0.0 2.0 0.00 0.00 0.00 56 1008.1
20260509211026 71 307 0.0 5.0 0.00 0.00 0.00 59 1008.4
20260509210848 71 196 0.0 5.0 0.00 0.00 0.00 57 1008.1
20260509210523 71 0 0.0 5.0 0.00 0.00 0.00 55 1008.5
20260509210334 71 225 0.0 5.0 0.00 0.00 0.00 56 1008.0
20260509210044 71 0 0.0 5.0 0.00 0.00 0.00 55 1008.4
20260509205819 71 276 0.0 2.0 0.00 0.00 0.00 57 1008.2
20260509205525 71 0 0.0 4.0 0.00 0.00 0.00 55 1008.5
20260509205322 71 268 0.0 4.0 0.00 0.00 0.00 56 1008.1
20260509205025 71 0 0.0 7.0 0.00 0.00 0.00 57 1008.4
20260509204847 71 181 0.0 4.0 0.00 0.00 0.00 57 1008.1
20260509204557 71 1 0.0 7.0 0.00 0.00 0.00 56 1008.4
20260509204331 71 208 0.0 7.0 0.00 0.00 0.00 56 1008.0
20260509204028 71 0 0.0 7.0 0.00 0.00 0.00 54 1008.3
20260509203815 71 175 0.0 5.0 0.00 0.00 0.00 56 1008.0
20260509203523 71 0 0.0 5.0 0.00 0.00 0.00 56 1008.2
20260509203323 71 250 0.0 3.0 0.00 0.00 0.00 55 1007.9
20260509203049 71 275 0.0 10.0 0.00 0.00 0.00 56 1008.2
20260509202830 71 200 0.0 9.0 0.00 0.00 0.00 56 1007.9
20260509202522 71 0 0.0 11.0 0.00 0.00 0.00 57 1008.1
20260509202355 71 198 1.0 10.0 0.00 0.00 0.00 56 1007.8
20260509202024 71 0 2.0 11.0 0.00 0.00 0.00 56 1008.2
20260509201818 71 152 2.0 8.0 0.00 0.00 0.00 59 1007.9
20260509201537 71 0 0.0 12.0 0.00 0.00 0.00 57 1008.2
20260509201322 71 344 1.0 8.0 0.00 0.00 0.00 58 1007.9
20260509201025 71 176 1.0 12.0 0.00 0.00 0.00 58 1008.3
20260509200849 71 206 1.0 11.0 0.00 0.00 0.00 59 1008.0
20260509200527 71 198 4.0 12.0 0.00 0.00 0.00 60 1008.4
20260509200316 71 138 4.0 9.0 0.00 0.00 0.00 61 1008.2
20260509200039 70 153 0.0 5.0 0.00 0.00 0.00 59 1008.5
20260509195824 71 200 0.0 5.0 0.00 0.00 0.00 57 1008.3
20260509195523 70 218 0.0 6.0 0.00 0.00 0.00 57 1008.6
20260509195332 71 206 1.0 6.0 0.00 0.00 0.00 60 1008.3
20260509195024 70 188 0.0 7.0 0.00 0.00 0.00 62 1008.7
20260509194818 70 167 0.0 6.0 0.00 0.00 0.00 60 1008.4
20260509194545 70 189 2.0 7.0 0.00 0.00 0.00 62 1008.9
20260509194322 70 108 1.0 4.0 0.00 0.00 0.00 61 1008.4
20260509194026 69 260 0.0 8.0 0.00 0.00 0.00 59 1008.9
20260509193830 70 244 0.0 7.0 0.00 0.00 0.00 60 1008.5
20260509193526 69 0 0.0 8.0 0.00 0.00 0.00 61 1009.0
20260509193334 70 175 0.0 7.0 0.00 0.00 0.00 61 1008.5
20260509193043 69 209 0.0 5.0 0.00 0.00 0.00 59 1009.2
20260509192818 70 140 0.0 3.0 0.00 0.00 0.00 62 1008.8
20260509192523 69 0 0.0 1.0 0.00 0.00 0.00 62 1009.3
20260509192323 70 333 0.0 1.0 0.00 0.00 0.00 62 1008.8
20260509192023 69 0 0.0 1.0 0.00 0.00 0.00 60 1009.3
20260509191847 69 342 0.0 1.0 0.00 0.00 0.00 61 1008.9
20260509191537 69 0 0.0 3.0 0.00 0.00 0.00 59 1009.4
20260509191318 69 345 0.0 3.0 0.00 0.00 0.00 60 1008.9
20260509191025 69 0 0.0 3.0 0.00 0.00 0.00 59 1009.5
20260509190822 69 344 1.0 3.0 0.00 0.00 0.00 61 1009.0
20260509190525 69 0 0.0 2.0 0.00 0.00 0.00 62 1009.6
20260509190326 69 207 0.0 2.0 0.00 0.00 0.00 60 1009.1
20260509190045 69 0 0.0 1.0 0.00 0.00 0.00 64 1009.4
20260509185831 69 144 0.0 0.0 0.00 0.00 0.00 64 1008.9
20260509185523 69 0 0.0 0.0 0.00 0.00 0.00 62 1009.4
20260509185334 69 11 0.0 0.0 0.00 0.00 0.00 62 1008.8
20260509185022 68 0 0.0 0.0 0.00 0.00 0.00 63 1009.3
20260509184839 68 11 0.0 0.0 0.00 0.00 0.00 64 1008.8
20260509184546 68 0 0.0 0.0 0.00 0.00 0.00 61 1009.6
20260509184324 68 11 0.0 0.0 0.00 0.00 0.00 64 1009.1
20260509184022 68 0 0.0 0.0 0.00 0.00 0.00 62 1009.7
20260509183832 68 12 0.0 0.0 0.00 0.00 0.00 64 1009.1
20260509183526 67 0 0.0 0.0 0.00 0.00 0.00 63 1009.6
20260509183335 68 14 0.0 0.0 0.00 0.00 0.00 63 1009.1
20260509183041 67 0 0.0 0.0 0.00 0.00 0.00 61 1009.8
20260509182820 68 14 0.0 0.0 0.00 0.00 0.00 63 1009.3
20260509182524 67 0 0.0 0.0 0.00 0.00 0.00 61 1009.6
20260509182328 68 16 0.0 0.0 0.00 0.00 0.00 62 1009.0
20260509182023 67 0 0.0 0.0 0.00 0.00 0.00 63 1009.7
20260509181816 67 16 0.0 0.0 0.00 0.00 0.00 64 1009.2
20260509181545 67 0 0.0 0.0 0.00 0.00 0.00 63 1009.8
20260509181321 67 16 0.0 0.0 0.00 0.00 0.00 66 1009.4
20260509181023 67 0 0.0 0.0 0.00 0.00 0.00 65 1010.1
20260509180847 67 16 0.0 0.0 0.00 0.00 0.00 65 1009.6
20260509180527 67 0 0.0 0.0 0.00 0.00 0.00 66 1010.1
20260509180349 67 16 0.0 0.0 0.00 0.00 0.00 64 1009.7
20260509180041 67 0 0.0 0.0 0.00 0.00 0.00 65 1010.4
20260509175833 67 16 0.0 0.0 0.00 0.00 0.00 66 1009.9
20260509175526 67 0 0.0 0.0 0.00 0.00 0.00 64 1010.4
20260509175317 67 16 0.0 0.0 0.00 0.00 0.00 66 1009.9
20260509175025 67 0 0.0 0.0 0.00 0.00 0.00 63 1010.4
20260509174822 67 360 0.0 0.0 0.00 0.00 0.00 64 1010.0
20260509174540 67 0 0.0 2.0 0.00 0.00 0.00 64 1010.4
20260509174328 67 3 0.0 2.0 0.00 0.00 0.00 63 1010.0
20260509174030 67 0 0.0 2.0 0.00 0.00 0.00 64 1010.5
20260509173832 68 1 0.0 2.0 0.00 0.00 0.00 64 1010.0
20260509173525 67 0 0.0 1.0 0.00 0.00 0.00 62 1010.5
20260509173319 67 69 0.0 1.0 0.00 0.00 0.00 64 1010.0
20260509173037 67 0 0.0 0.0 0.00 0.00 0.00 64 1010.6
20260509172823 67 337 0.0 0.0 0.00 0.00 0.00 64 1010.1
20260509172529 67 0 0.0 0.0 0.00 0.00 0.00 63 1010.6
20260509172327 67 337 0.0 0.0 0.00 0.00 0.00 63 1010.1
20260509172025 66 0 0.0 0.0 0.00 0.00 0.00 63 1010.5
20260509171851 67 337 0.0 0.0 0.00 0.00 0.00 67 1010.0
20260509171538 66 0 0.0 0.0 0.00 0.00 0.00 64 1010.6
20260509171317 67 337 0.0 0.0 0.00 0.00 0.00 64 1010.1
20260509171026 66 0 0.0 0.0 0.00 0.00 0.00 63 1010.7
20260509170822 67 348 0.0 0.0 0.00 0.00 0.00 63 1010.3
20260509170525 66 0 0.0 0.0 0.00 0.00 0.00 63 1010.7
20260509170326 67 350 0.0 0.0 0.00 0.00 0.00 64 1010.2
20260509170043 66 0 0.0 0.0 0.00 0.00 0.00 63 1010.8
20260509165830 67 350 0.0 0.0 0.00 0.00 0.00 66 1010.2
20260509165527 66 0 0.0 0.0 0.00 0.00 0.00 61 1010.8
20260509165334 67 345 0.0 0.0 0.00 0.00 0.00 64 1010.3
20260509165025 66 0 0.0 0.0 0.00 0.00 0.00 62 1010.8
20260509164817 67 345 0.0 0.0 0.00 0.00 0.00 62 1010.4
20260509164543 66 0 0.0 2.0 0.00 0.00 0.00 63 1010.8
20260509164326 67 345 0.0 2.0 0.00 0.00 0.00 62 1010.4
20260509164026 66 0 0.0 2.0 0.00 0.00 0.00 62 1010.8
20260509163851 67 345 0.0 2.0 0.00 0.00 0.00 64 1010.3
20260509163525 67 0 0.0 2.0 0.00 0.00 0.00 62 1010.7
20260509163355 67 349 0.0 2.0 0.00 0.00 0.00 62 1010.3
20260509163050 67 0 0.0 5.0 0.00 0.00 0.00 62 1010.7
20260509162819 68 135 0.0 5.0 0.00 0.00 0.00 62 1010.2
20260509162525 67 0 0.0 5.0 0.00 0.00 0.00 64 1010.6
20260509162344 68 170 0.0 5.0 0.00 0.00 0.00 62 1010.2
20260509162026 67 218 0.0 5.0 0.00 0.00 0.00 61 1010.6